Regional Weather Roundup
Issued by NWS

Home | Current Version | Previous Version | Graphics & Text | Print | Product List | Glossary On
Versions: 1 2 3 4 5 6 7 8 9 10 11 12 13 14 15 16 17 18 19 20 21 22 23 24 25 26 27 28 29 30 31 32 33 34 35 36 37 38 39 40 41 42 43 44 45 46 47 48 49 50
000
ASUS45 KPSR 230810
RWRAZ

ARIZONA REGIONAL HOURLY WEATHER ROUNDUP
NATIONAL WEATHER SERVICE PHOENIX AZ
100 AM MST TUE SEP 23 2014

NOTE: FAIR INDICATES FEW OR NO CLOUDS BELOW 12,000 FEET WITH NO
SIGNIFICANT WEATHER AND/OR OBSTRUCTIONS TO VISIBILITY.

AZZ001>003-036-230900-
NORTHWEST ARIZONA

CITY           SKY/WX    TMP DP  RH WIND       PRES   REMARKS
BULLHEAD CITY  CLEAR     81  37  21 E5        29.91R
KINGMAN        CLEAR     59  37  44 SE3       30.09S
$$

AZZ004>008-015-016-018-230900-
NORTH CENTRAL ARIZONA

CITY           SKY/WX    TMP DP  RH WIND       PRES   REMARKS
GRAND CANYON   CLEAR     43  39  86 CALM      30.32R
PRESCOTT       CLEAR     58  39  49 S6        30.21S
FLAGSTAFF      CLEAR     47  43  86 CALM      30.34S
PAYSON         CLEAR     63  55  77 CALM      30.23S
PAGE           CLEAR     71  42  35 SW3       30.13R
$$

AZZ009>014-017-230900-
NORTHEAST ARIZONA

CITY           SKY/WX    TMP DP  RH WIND       PRES   REMARKS
WINSLOW        CLEAR     63  51  65 W3        30.19S
SAINT JOHNS    PTCLDY    62  59  90 S3        30.24R
WINDOW ROCK    MOCLDY    56  49  77 E3        30.31
SHOW LOW       CLEAR     57  54  88 SW5       30.32S
$$

AZZ023-230900-
GREATER PHOENIX AREA

CITY           SKY/WX    TMP DP  RH WIND       PRES   REMARKS
PHOENIX        CLEAR     84  54  35 CALM      29.90S
BUCKEYE          N/A     75  48  38 N3        29.91S
LUKE AFB       CLEAR     77  52  41 N9        29.91S
DEER VALLEY    CLEAR     79  50  36 NE3       29.93R
SCOTTSDALE     CLEAR     82  55  39 CALM      29.94F
MESA-GATEWAY   CLEAR    N/A N/A N/A CALM      29.95S
$$

AZZ027-028-230900-
SOUTHWEST MARICOPA COUNTY AND PINAL COUNTY

CITY           SKY/WX    TMP DP  RH WIND       PRES   REMARKS
CASA GRANDE    CLEAR     77  50  38 CALM      29.94S
$$

AZZ503-504-507>509-230900-
SOUTHEAST ARIZONA

CITY           SKY/WX    TMP DP  RH WIND       PRES   REMARKS
TUCSON         CLEAR     81  59  47 SE3       30.04S
DAVIS-MONTHAN  CLEAR     76  64  64 SE7       30.02S
NOGALES        PTCLDY    70  64  81 NE5       30.12R
SIERRA VISTA   PTCLDY    67  63  87 CALM      30.18S
DOUGLAS        CLEAR     66  63  90 NW3       30.14F
SAFFORD        CLEAR     75  63  66 E13       30.09R
$$

AZZ020-021-025-026-031-230900-
SOUTHWEST ARIZONA

CITY           SKY/WX    TMP DP  RH WIND       PRES   REMARKS
YUMA           CLEAR     85  68  56 SE5       29.86S
$$

CAZ031-033-041-043-047-048-061-230900-
SOUTHERN CALIFORNIA

CITY           SKY/WX    TMP DP  RH WIND       PRES   REMARKS
DOWNTOWN L.A.  CLEAR     67  62  84 CALM      29.95S
L.A. AIRPORT   CLEAR     66  63  89 CALM      29.95S
SAN DIEGO      MOCLDY    70  64  81 N3        29.96S
BURBANK        CLEAR     67  60  78 CALM      29.96R
ONTARIO        CLEAR     70  59  68 SW3       29.96S
RIVERSIDE      CLEAR     69  60  73 CALM      29.96S
PALM SPRINGS   CLEAR     85  43  22 NW7       29.91R
EL CENTRO NAS  CLEAR     84  57  39 W3        29.83S
IMPERIAL       CLEAR     82  60  47 CALM      29.83S
BLYTHE         CLEAR     82  54  37 NW3       29.88R
NEEDLES        CLEAR     80  40  23 CALM      29.91R
$$

NVZ020-UTZ003-230900-
SOUTHERN NEVADA-UTAH

CITY           SKY/WX    TMP DP  RH WIND       PRES   REMARKS
LAS VEGAS      CLEAR     79  38  22 SW9       29.95R
SALT LAKE CITY MOCLDY    64  52  64 SE6       30.12R
$$

NMZ009-TXZ055-230900-
NEW MEXICO-WEST TEXAS

CITY           SKY/WX    TMP DP  RH WIND       PRES   REMARKS
ALBUQUERQUE    PTCLDY    63  60  90 SE9       30.26S
EL PASO        MOCLDY    69  64  84 NE3       30.19S
$$


........................KEY........................
SKY/WX - SKY CONDITION/WEATHER
TMP    - TEMPERATURE IN FAHRENHEIT
DP     - DEW POINT IN FAHRENHEIT
RH     - RELATIVE HUMIDITY IN PERCENT
WIND   - DIRECTION AND SPEED IN MILES PER HOUR (MPH)
VRB    - VARIABLE WIND DIRECTION
PRES   - MEAN SEA LEVEL PRESSURE IN INCHES OF MERCURY
         F - FALLING PRESSURE   R - RISING PRESSURE
         S - STEADY PRESSURE
VSB    - VISIBILITY IN MILES
HX     - HEAT INDEX IN FAHRENHEIT
WCI    - WIND CHILL INDEX IN FAHRENHEIT
TC     - TEMPERATURE IN CELSIUS WHICH IS ALSO KNOWN AS
         TEMPERATURE IN CENTIGRADE
AFB    - AIR FORCE BASE
         LUKE AFB IS LUKE AIR FORCE BASE
         DAVIS-MONTHAN IS DAVIS-MONTHAN AIR FORCE BASE
NAS    - NAVAL AIR STATION
         EL CENTRO NAS IS EL CENTRO NAVAL AIR STATION
N/A    - NOT AVAILABLE



USA.gov is the U.S. government's official web portal to all federal, state and local government web resources and services.